Home   Weather   Newcastle upon Tyne   Past weeks

Flag for United Kingdom Past Weather in Newcastle upon Tyne, England, United Kingdom — Yesterday and Last 2 Weeks

50 °F

Passing clouds.

Feels Like: 49 °F
Forecast: 48 / 57 °F
Wind: 3 mph from North

Location: Newcastle

Current Time: Oct 25, 2016 at 6:24:46 PM

Latest Report: Oct 25, 2016 at 5:50 PM

Visibility: N/A

Pressure: 30.18 "Hg

Humidity: 88%

Dew Point: 46 °F

Location of Newcastle upon TyneLocation

Past Weather in Newcastle upon Tyne — Graph


Newcastle upon Tyne Temperature Yesterday

Maximum temperature yesterday: 52 °F (at 12:50 PM)
Minimum temperature yesterday: 41 °F (at 12:20 AM)
Average temperature yesterday: 45 °F

High & Low Weather Summary for the Past Weeks

High59 °F (Oct 17, 1:50 PM)100% (Oct 10, 6:50 PM)30.39 "Hg (Oct 10, 6:50 PM)
Low39 °F (Oct 25, 12:50 AM)55% (Oct 17, 2:50 PM)29.65 "Hg (Oct 15, 7:20 AM)
Average48 °F92%30.05 "Hg
* Reported Oct 10 5:20 PM — Oct 25 5:20 PM, Newcastle upon Tyne, Weather by CustomWeather, © 2016

Note: Actual official high and low records may vary slightly from our data, if they occured in-between our weather recording intervals... More about our weather records


Newcastle upon Tyne Weather History for the Previous 24 Hours

Scroll right to see more
Time TempWeatherWind HumidityBarometerVisibility
5:20 PM
Tue, Oct 25
50 °FPassing clouds.2 mph88%30.18 "HgN/A
4:50 PM50 °FPassing clouds.2 mph82%30.18 "HgN/A
4:20 PM52 °FPassing clouds.5 mph77%30.18 "HgN/A
3:50 PM54 °FScattered clouds.5 mph94%30.18 "HgN/A
3:20 PM54 °FScattered clouds.6 mph94%30.18 "HgN/A
2:50 PM52 °FFog.5 mph100%30.18 "HgN/A
1:20 PM50 °FFog.3 mph100%30.21 "Hg2 mi
12:50 PM48 °FFog.1 mph100%30.21 "Hg1 mi
12:20 PM46 °FFog.1 mph100%30.21 "Hg1 mi
11:50 AM45 °FFog.1 mph100%30.21 "Hg0 mi
11:20 AM45 °FFog.2 mph100%30.21 "Hg0 mi
10:50 AM43 °FFog.2 mph100%30.21 "Hg0 mi
10:20 AM43 °FFog.3 mph100%30.21 "Hg0 mi
9:20 AM43 °FFog.3 mph100%30.21 "Hg0 mi
8:50 AM41 °FFog.1 mph100%30.21 "Hg0 mi
8:20 AM39 °FFog.1 mph100%30.18 "Hg1 mi
7:50 AM39 °FFog.No wind100%30.18 "Hg4 mi
7:20 AM39 °FFog.1 mph100%30.18 "Hg4 mi
6:50 AM39 °FFog.1 mph100%30.18 "Hg4 mi
6:20 AM41 °FFog.1 mph100%30.18 "Hg4 mi
5:50 AM41 °FLight rain. Passing clouds.2 mph100%30.15 "Hg4 mi
5:20 AM43 °FLight rain. Passing clouds.2 mph100%30.15 "Hg4 mi
4:50 AM43 °FScattered showers. Passing clouds.2 mph100%30.15 "HgN/A
4:20 AM43 °FScattered showers. Passing clouds.3 mph100%30.15 "HgN/A
3:50 AM43 °FScattered showers. Passing clouds.3 mph100%30.15 "HgN/A
3:20 AM43 °FScattered showers. Passing clouds.1 mph100%30.15 "HgN/A
2:50 AM43 °FLight rain. Passing clouds.1 mph100%30.12 "HgN/A
2:20 AM43 °FPassing clouds.2 mph100%30.12 "HgN/A
1:50 AM41 °FPassing clouds.2 mph100%30.12 "HgN/A
1:20 AM41 °FPassing clouds.2 mph100%30.12 "HgN/A
12:50 AM39 °FPassing clouds.1 mph100%30.12 "HgN/A
12:20 AM41 °FPassing clouds.1 mph100%30.12 "HgN/A
11:50 PM
Mon, Oct 24
41 °FPassing clouds.3 mph100%30.12 "HgN/A
11:20 PM43 °FPassing clouds.1 mph100%30.12 "HgN/A
10:50 PM43 °FPassing clouds.5 mph100%30.09 "HgN/A
10:20 PM43 °FLight rain. Partly cloudy.3 mph100%30.09 "HgN/A
9:50 PM43 °FPassing clouds.3 mph100%30.09 "HgN/A
9:20 PM43 °FPassing clouds.3 mph100%30.09 "HgN/A
8:50 PM43 °FPassing clouds.5 mph100%30.09 "HgN/A
8:20 PM43 °FPassing clouds.3 mph100%30.07 "HgN/A
7:50 PM45 °FPassing clouds.5 mph100%30.07 "HgN/A
6:50 PM46 °FPassing clouds.5 mph93%30.07 "HgN/A
6:20 PM48 °FPassing clouds.5 mph94%30.07 "HgN/A
Weather by CustomWeather, © 2016

See weather overviewHow to use our weather pages